Tracking 19846 objects as of 20-Sep-2019
HD Live streaming from Space Station
objects crossing your sky now

SL-3 R/B

Track SL-3 R/B now!
10-day predictions


NORAD ID: 7275
Int'l Code: 1974-025B
Perigee: 836.2 km
Apogee: 919.9 km
Inclination: 81.2 °
Period: 102.4 minutes
Semi major axis: 7249 km
RCS: 7.5013 m2 (large)
Launch date: April 24, 1974
Source: Commonwealth of Independent States (former USSR) (CIS)
Launch site: PLESETSK MISSILE AND SPACE COMPLEX (PKMTR)

Note: This is a ROCKET BODY
aabbcc
Your satellite tracking list
Your tracking list is empty




NASA's NSSDC Master Catalog

Two Line Element Set (TLE):
1  7275U 74025B   19263.20340764 -.00000088  00000-0 -59971-4 0  9999
2  7275  81.2422 236.5858 0057716  75.9891 284.7686 14.06639558329309
Source of the keplerian elements: AFSPC